Time,TemperatureF,DewpointF,PressureIn,WindDirection,WindDirectionDegrees,WindSpeedMPH,WindSpeedGustMPH,Humidity,HourlyPrecipIn,Conditions,Clouds,dailyrainin,SoftwareType,DateUTC
2013-06-22 10:02:00,82.0,73.0,30.12,East,82,3.0,9.0,75,0.00,,,0.30,,2013-06-22 15:02:00,
2013-06-22 10:12:00,82.0,74.0,30.13,ENE,70,2.0,8.0,76,0.00,,,0.30,,2013-06-22 15:12:00,
2013-06-22 10:34:00,83.0,75.0,30.13,ESE,113,3.0,10.0,77,0.00,,,0.30,,2013-06-22 15:34:00,
2013-06-22 10:43:00,83.0,73.0,30.13,ESE,107,4.0,9.0,72,0.00,,,0.30,,2013-06-22 15:43:00,
2013-06-22 10:53:00,83.0,73.0,30.13,ESE,107,4.0,9.0,72,0.00,,,0.30,,2013-06-22 15:53:00,
2013-06-22 11:02:00,83.0,73.0,30.13,East,80,4.0,9.0,71,0.00,,,0.30,,2013-06-22 16:02:00,
2013-06-22 11:12:00,84.0,74.0,30.13,ENE,74,4.0,9.0,71,0.00,,,0.30,,2013-06-22 16:12:00,
2013-06-22 11:22:00,84.0,74.0,30.13,ENE,74,4.0,9.0,71,0.00,,,0.30,,2013-06-22 16:22:00,
2013-06-22 11:34:00,85.0,74.0,30.13,East,96,4.0,8.0,69,0.00,,,0.30,,2013-06-22 16:34:00,
2013-06-22 11:43:00,85.0,74.0,30.13,SE,138,2.0,8.0,69,0.00,,,0.30,,2013-06-22 16:43:00,
2013-06-22 11:52:00,85.0,74.0,30.13,SE,138,2.0,8.0,69,0.00,,,0.30,,2013-06-22 16:52:00,
2013-06-22 12:02:00,86.0,74.0,30.13,East,99,2.0,9.0,68,0.00,,,0.30,,2013-06-22 17:02:00,
2013-06-22 12:11:00,86.0,72.0,30.13,ENE,72,2.0,8.0,63,0.00,,,0.30,,2013-06-22 17:11:00,
2013-06-22 12:22:00,86.0,72.0,30.13,ENE,72,2.0,8.0,63,0.00,,,0.30,,2013-06-22 17:22:00,
2013-06-22 12:34:00,87.0,74.0,30.12,ENE,63,1.0,5.0,65,0.00,,,0.30,,2013-06-22 17:34:00,
2013-06-22 12:43:00,86.0,72.0,30.12,East,86,2.0,5.0,64,0.00,,,0.30,,2013-06-22 17:43:00,
2013-06-22 12:52:00,86.0,72.0,30.12,East,86,2.0,5.0,64,0.00,,,0.30,,2013-06-22 17:52:00,
2013-06-22 13:02:00,87.0,73.0,30.12,ESE,112,1.0,7.0,64,0.00,,,0.30,,2013-06-22 18:02:00,
2013-06-22 13:12:00,86.0,71.0,30.12,ENE,67,3.0,7.0,62,0.00,,,0.30,,2013-06-22 18:12:00,
2013-06-22 13:23:00,86.0,71.0,30.12,ENE,67,3.0,7.0,62,0.00,,,0.30,,2013-06-22 18:23:00,
2013-06-22 13:34:00,87.0,72.0,30.11,East,81,4.0,7.0,62,0.00,,,0.30,,2013-06-22 18:34:00,
2013-06-22 13:43:00,88.0,75.0,30.11,South,170,0.0,7.0,65,0.00,,,0.30,,2013-06-22 18:43:00,
2013-06-22 13:52:00,88.0,75.0,30.11,South,170,0.0,7.0,65,0.00,,,0.30,,2013-06-22 18:52:00,
2013-06-22 14:01:00,88.0,71.0,30.11,East,84,2.0,6.0,58,0.00,,,0.30,,2013-06-22 19:01:00,
2013-06-22 14:11:00,88.0,73.0,30.10,East,89,1.0,5.0,62,0.00,,,0.30,,2013-06-22 19:11:00,
2013-06-22 14:22:00,88.0,73.0,30.10,East,89,1.0,5.0,62,0.00,,,0.30,,2013-06-22 19:22:00,
2013-06-22 14:33:00,89.0,73.0,30.09,ESE,103,3.0,5.0,60,0.00,,,0.30,,2013-06-22 19:33:00,
2013-06-22 14:43:00,89.0,71.0,30.09,ESE,109,3.0,7.0,56,0.00,,,0.30,,2013-06-22 19:43:00,
2013-06-22 14:52:00,89.0,71.0,30.09,ESE,109,3.0,7.0,56,0.00,,,0.30,,2013-06-22 19:52:00,
2013-06-22 15:02:00,89.0,76.0,30.09,SW,223,1.0,4.0,66,0.00,,,0.30,,2013-06-22 20:02:00,
2013-06-22 15:11:00,91.0,77.0,30.09,SSE,157,0.0,3.0,63,0.00,,,0.30,,2013-06-22 20:11:00,
2013-06-22 15:22:00,91.0,77.0,30.09,SSE,157,0.0,3.0,63,0.00,,,0.30,,2013-06-22 20:22:00,
2013-06-22 15:33:00,91.0,75.0,30.08,SE,130,1.0,8.0,59,0.00,,,0.26,,2013-06-22 20:33:00,
2013-06-22 15:43:00,91.0,76.0,30.07,South,185,0.0,5.0,62,0.00,,,0.26,,2013-06-22 20:43:00,
2013-06-22 15:53:00,91.0,76.0,30.07,South,185,0.0,5.0,62,0.00,,,0.26,,2013-06-22 20:53:00,
2013-06-22 16:01:00,89.0,75.0,30.07,ESE,105,1.0,3.0,64,0.00,,,0.26,,2013-06-22 21:01:00,
2013-06-22 16:11:00,90.0,75.0,30.06,WSW,238,0.0,4.0,61,0.00,,,0.26,,2013-06-22 21:11:00,
2013-06-22 16:22:00,90.0,75.0,30.06,WSW,238,0.0,4.0,61,0.00,,,0.26,,2013-06-22 21:22:00,
2013-06-22 16:34:00,90.0,75.0,30.06,South,175,1.0,5.0,62,0.00,,,0.00,,2013-06-22 21:34:00,
2013-06-22 16:43:00,90.0,75.0,30.06,South,191,0.0,5.0,61,0.00,,,0.00,,2013-06-22 21:43:00,
2013-06-22 16:53:00,90.0,75.0,30.06,South,191,0.0,5.0,61,0.00,,,0.00,,2013-06-22 21:53:00,
2013-06-22 17:02:00,90.0,74.0,30.05,South,178,1.0,4.0,59,0.00,,,0.00,,2013-06-22 22:02:00,
2013-06-22 17:12:00,90.0,74.0,30.05,SSE,157,0.0,4.0,60,0.00,,,0.00,,2013-06-22 22:12:00,
2013-06-22 17:23:00,90.0,74.0,30.05,SSE,157,0.0,4.0,60,0.00,,,0.00,,2013-06-22 22:23:00,
2013-06-22 17:33:00,90.0,74.0,30.05,South,173,0.0,2.0,60,0.00,,,0.00,,2013-06-22 22:33:00,
2013-06-22 17:43:00,90.0,76.0,30.04,South,185,1.0,7.0,63,0.00,,,0.00,,2013-06-22 22:43:00,
2013-06-22 17:52:00,90.0,76.0,30.04,South,185,1.0,7.0,63,0.00,,,0.00,,2013-06-22 22:52:00,
2013-06-22 18:01:00,86.0,74.0,30.04,SSE,153,0.0,7.0,67,0.00,,,0.00,,2013-06-22 23:01:00,
2013-06-22 18:11:00,86.0,74.0,30.04,SSW,209,3.0,5.0,67,0.00,,,0.00,,2013-06-22 23:11:00,
2013-06-22 18:22:00,86.0,74.0,30.04,SSW,209,3.0,5.0,67,0.00,,,0.00,,2013-06-22 23:22:00,
2013-06-22 18:34:00,85.0,75.0,30.04,SSW,195,0.0,4.0,72,0.00,,,0.00,,2013-06-22 23:34:00,
2013-06-22 18:43:00,84.0,74.0,30.04,SSW,200,0.0,3.0,73,0.00,,,0.00,,2013-06-22 23:43:00,
2013-06-22 18:52:00,84.0,74.0,30.04,SSW,200,0.0,3.0,73,0.00,,,0.00,,2013-06-22 23:52:00,
2013-06-22 19:01:00,83.0,73.0,30.03,SSW,200,0.0,1.0,73,0.00,,,0.00,,2013-06-23 00:01:00,
2013-06-22 19:11:00,83.0,74.0,30.03,SSW,200,0.0,2.0,74,0.00,,,0.00,,2013-06-23 00:11:00,
2013-06-22 19:22:00,83.0,74.0,30.03,SSW,200,0.0,2.0,74,0.00,,,0.00,,2013-06-23 00:22:00,
2013-06-22 19:33:00,82.0,74.0,30.03,SSW,200,0.0,1.0,76,0.00,,,0.00,,2013-06-23 00:33:00,
2013-06-22 19:42:00,82.0,74.0,30.03,SSW,200,0.0,1.0,76,0.00,,,0.00,,2013-06-23 00:42:00,
2013-06-22 19:53:00,82.0,74.0,30.03,SSW,200,0.0,1.0,76,0.00,,,0.00,,2013-06-23 00:53:00,
2013-06-22 20:01:00,82.0,74.0,30.03,SSW,200,0.0,1.0,76,0.00,,,0.00,,2013-06-23 01:01:00,
2013-06-22 20:11:00,82.0,74.0,30.03,SSW,200,0.0,1.0,76,0.00,,,0.00,,2013-06-23 01:11:00,
2013-06-22 20:22:00,82.0,74.0,30.03,SSW,200,0.0,1.0,76,0.00,,,0.00,,2013-06-23 01:22:00,
2013-06-22 20:32:00,81.0,74.0,30.02,SSW,200,1.0,2.0,79,0.00,,,0.00,,2013-06-23 01:32:00,
2013-06-22 20:42:00,81.0,74.0,30.02,SSW,200,1.0,2.0,79,0.00,,,0.00,,2013-06-23 01:42:00,
2013-06-22 20:52:00,81.0,74.0,30.02,SSW,200,1.0,2.0,79,0.00,,,0.00,,2013-06-23 01:52:00,
2013-06-22 21:01:00,79.0,73.0,30.03,SSW,200,0.0,0.0,81,0.00,,,0.00,,2013-06-23 02:01:00,
2013-06-22 21:11:00,79.0,73.0,30.03,SSW,200,0.0,0.0,81,0.00,,,0.00,,2013-06-23 02:11:00,
2013-06-22 21:21:00,79.0,73.0,30.03,SSW,200,0.0,0.0,81,0.00,,,0.00,,2013-06-23 02:21:00,
2013-06-22 21:31:00,79.0,73.0,30.03,SSW,200,0.0,0.0,81,0.00,,,0.00,,2013-06-23 02:31:00,
2013-06-22 21:41:00,79.0,73.0,30.03,SSW,200,0.0,0.0,81,0.00,,,0.00,,2013-06-23 02:41:00,